| time (UTC) | temp F | wind direction | speed MPH | gust MPH | rain 1hr in | rain 24hr in | rain mn in | humidity % | barometer mb |
| 20260906094920 | 73 | 37 | 0.0 | 0.0 | 0.00 | 0.00 | 0.00 | 96 | 1013.6 |
| 20260906094414 | 73 | 352 | 0.0 | 0.0 | 0.00 | 0.00 | 0.00 | 96 | 1013.6 |
| 20260906093910 | 73 | 315 | 0.0 | 1.0 | 0.00 | 0.00 | 0.00 | 96 | 1013.8 |
| 20260906093407 | 73 | 55 | 0.0 | 1.0 | 0.00 | 0.00 | 0.00 | 96 | 1013.7 |
| 20260906092907 | 73 | 40 | 0.0 | 1.0 | 0.00 | 0.00 | 0.00 | 96 | 1013.6 |
| 20260906092406 | 74 | 297 | 0.0 | 1.0 | 0.00 | 0.00 | 0.00 | 96 | 1013.6 |
| 20260906091902 | 74 | 50 | 0.0 | 0.0 | 0.00 | 0.00 | 0.00 | 96 | 1013.5 |
| 20260906091358 | 74 | 322 | 0.0 | 1.0 | 0.00 | 0.00 | 0.00 | 95 | 1013.6 |
| 20260906090854 | 74 | 37 | 0.0 | 1.0 | 0.00 | 0.00 | 0.00 | 95 | 1013.6 |
| 20260906090353 | 74 | 50 | 0.0 | 2.0 | 0.00 | 0.00 | 0.00 | 95 | 1013.7 |
| 20260906085848 | 74 | 297 | 0.0 | 0.0 | 0.00 | 0.00 | 0.00 | 95 | 1013.7 |
| 20260906085347 | 74 | 308 | 0.0 | 1.0 | 0.00 | 0.00 | 0.00 | 95 | 1013.7 |
| 20260906084842 | 74 | 320 | 1.0 | 1.0 | 0.00 | 0.00 | 0.00 | 95 | 1013.5 |
| 20260906084342 | 75 | 22 | 0.0 | 1.0 | 0.00 | 0.00 | 0.00 | 95 | 1013.4 |
| 20260906083836 | 75 | 322 | 0.0 | 1.0 | 0.00 | 0.00 | 0.00 | 94 | 1013.5 |
| 20260906083333 | 75 | 269 | 0.0 | 1.0 | 0.00 | 0.00 | 0.00 | 95 | 1013.4 |
| 20260906082832 | 75 | 269 | 0.0 | 2.0 | 0.00 | 0.00 | 0.00 | 94 | 1013.3 |
| 20260906082327 | 75 | 269 | 0.0 | 2.0 | 0.00 | 0.00 | 0.00 | 94 | 1013.3 |
| 20260906081823 | 75 | 25 | 0.0 | 1.0 | 0.00 | 0.00 | 0.00 | 94 | 1013.4 |
| 20260906081319 | 75 | 247 | 0.0 | 2.0 | 0.00 | 0.00 | 0.00 | 94 | 1013.2 |
| 20260906080814 | 75 | 63 | 1.0 | 3.0 | 0.00 | 0.00 | 0.00 | 95 | 1013.3 |
| 20260906080311 | 75 | 306 | 0.0 | 2.0 | 0.00 | 0.00 | 0.00 | 95 | 1013.2 |
| 20260906075810 | 75 | 154 | 0.0 | 2.0 | 0.00 | 0.00 | 0.00 | 95 | 1013.1 |
| 20260906075310 | 75 | 56 | 1.0 | 3.0 | 0.00 | 0.00 | 0.00 | 96 | 1013.3 |
| 20260906074805 | 75 | 25 | 0.0 | 1.0 | 0.00 | 0.00 | 0.00 | 95 | 1013.5 |
| 20260906074305 | 75 | 32 | 0.0 | 2.0 | 0.00 | 0.00 | 0.00 | 96 | 1013.5 |
| 20260906073804 | 75 | 36 | 0.0 | 1.0 | 0.00 | 0.00 | 0.00 | 96 | 1013.6 |
| 20260906073259 | 75 | 82 | 2.0 | 3.0 | 0.00 | 0.00 | 0.00 | 96 | 1013.5 |
| 20260906072755 | 74 | 89 | 1.0 | 2.0 | 0.00 | 0.00 | 0.00 | 96 | 1013.7 |
| 20260906072250 | 74 | 37 | 0.0 | 0.0 | 0.00 | 0.00 | 0.00 | 95 | 1013.4 |
| 20260906071746 | 74 | 55 | 0.0 | 1.0 | 0.00 | 0.00 | 0.00 | 95 | 1013.0 |
| 20260906071246 | 74 | 50 | 0.0 | 0.0 | 0.00 | 0.00 | 0.00 | 95 | 1012.9 |
| 20260906070743 | 75 | 22 | 0.0 | 0.0 | 0.00 | 0.00 | 0.00 | 96 | 1012.9 |
| 20260906070238 | 75 | 25 | 0.0 | 0.0 | 0.00 | 0.00 | 0.00 | 96 | 1012.8 |
| 20260906065737 | 75 | 297 | 0.0 | 0.0 | 0.00 | 0.00 | 0.00 | 96 | 1012.9 |
| 20260906065233 | 75 | 322 | 0.0 | 1.0 | 0.00 | 0.00 | 0.00 | 95 | 1013.0 |
| 20260906064728 | 75 | 37 | 0.0 | 1.0 | 0.00 | 0.00 | 0.00 | 96 | 1013.0 |
| 20260906064224 | 75 | 37 | 0.0 | 1.0 | 0.00 | 0.00 | 0.00 | 96 | 1013.0 |
| 20260906063719 | 75 | 74 | 1.0 | 2.0 | 0.00 | 0.00 | 0.00 | 96 | 1013.2 |
| 20260906063215 | 75 | 62 | 0.0 | 2.0 | 0.00 | 0.00 | 0.00 | 95 | 1013.1 |
| 20260906062710 | 75 | 63 | 2.0 | 2.0 | 0.00 | 0.00 | 0.00 | 95 | 1013.4 |
| 20260906062209 | 75 | 82 | 1.0 | 2.0 | 0.00 | 0.00 | 0.00 | 95 | 1013.5 |
| 20260906061705 | 75 | 47 | 0.0 | 1.0 | 0.00 | 0.00 | 0.00 | 95 | 1013.7 |
| 20260906061200 | 75 | 20 | 0.0 | 0.0 | 0.00 | 0.00 | 0.00 | 95 | 1013.3 |
| 20260906060656 | 75 | 41 | 0.0 | 1.0 | 0.00 | 0.00 | 0.00 | 94 | 1013.6 |
| 20260906060153 | 75 | 25 | 0.0 | 1.0 | 0.00 | 0.00 | 0.00 | 94 | 1013.5 |
| 20260906055649 | 75 | 50 | 0.0 | 0.0 | 0.00 | 0.00 | 0.00 | 94 | 1013.6 |
| 20260906055144 | 75 | 66 | 0.0 | 1.0 | 0.00 | 0.00 | 0.00 | 94 | 1013.6 |
| 20260906054639 | 75 | 309 | 0.0 | 0.0 | 0.00 | 0.00 | 0.00 | 93 | 1013.7 |
| 20260906054134 | 76 | 297 | 0.0 | 2.0 | 0.00 | 0.00 | 0.00 | 93 | 1013.9 |
| 20260906053631 | 76 | 280 | 0.0 | 2.0 | 0.00 | 0.00 | 0.00 | 93 | 1013.9 |
| 20260906053125 | 75 | 15 | 0.0 | 0.0 | 0.00 | 0.00 | 0.00 | 94 | 1013.9 |
| 20260906052621 | 75 | 85 | 0.0 | 1.0 | 0.00 | 0.00 | 0.00 | 94 | 1014.0 |
| 20260906052118 | 75 | 89 | 0.0 | 0.0 | 0.00 | 0.00 | 0.00 | 94 | 1013.8 |
| 20260906051613 | 75 | 37 | 0.0 | 1.0 | 0.00 | 0.00 | 0.00 | 93 | 1014.0 |
| 20260906051108 | 75 | 309 | 0.0 | 1.0 | 0.00 | 0.00 | 0.00 | 93 | 1013.9 |
| 20260906050604 | 75 | 278 | 0.0 | 1.0 | 0.00 | 0.00 | 0.00 | 93 | 1013.7 |
| 20260906050059 | 75 | 310 | 0.0 | 0.0 | 0.00 | 0.00 | 0.00 | 93 | 1013.8 |
| 20260906045557 | 75 | 310 | 0.0 | 1.0 | 0.00 | 0.00 | 0.00 | 93 | 1013.8 |
| 20260906045053 | 75 | 297 | 0.0 | 0.0 | 0.00 | 0.00 | 0.00 | 93 | 1014.0 |
| 20260906044548 | 76 | 297 | 0.0 | 0.0 | 0.00 | 0.00 | 0.00 | 92 | 1013.9 |
| 20260906044043 | 76 | 309 | 0.0 | 0.0 | 0.00 | 0.00 | 0.00 | 92 | 1014.1 |
| 20260906043539 | 76 | 321 | 0.0 | 0.0 | 0.00 | 0.00 | 0.00 | 92 | 1014.1 |
| 20260906043035 | 76 | 37 | 0.0 | 0.0 | 0.00 | 0.00 | 0.00 | 92 | 1014.1 |
| 20260906042534 | 76 | 297 | 0.0 | 0.0 | 0.00 | 0.00 | 0.00 | 92 | 1014.0 |
| 20260906042029 | 76 | 37 | 0.0 | 0.0 | 0.00 | 0.00 | 0.00 | 92 | 1014.2 |
| 20260906041525 | 76 | 44 | 0.0 | 0.0 | 0.00 | 0.00 | 0.00 | 92 | 1014.2 |
| 20260906041025 | 76 | 25 | 0.0 | 0.0 | 0.00 | 0.00 | 0.00 | 92 | 1014.1 |
| 20260906040520 | 76 | 32 | 0.0 | 1.0 | 0.00 | 0.00 | 0.00 | 92 | 1014.2 |
| 20260906040016 | 76 | 62 | 0.0 | 0.0 | 0.00 | 0.48 | 0.48 | 93 | 1014.3 |
| 20260906035510 | 76 | 25 | 0.0 | 0.0 | 0.00 | 0.48 | 0.48 | 93 | 1014.2 |
| 20260906035007 | 76 | 74 | 1.0 | 2.0 | 0.00 | 0.48 | 0.48 | 93 | 1014.3 |
| 20260906034506 | 76 | 37 | 0.0 | 1.0 | 0.00 | 0.48 | 0.48 | 93 | 1014.2 |
| 20260906034001 | 76 | 104 | 0.0 | 0.0 | 0.00 | 0.48 | 0.48 | 93 | 1014.3 |
| 20260906033456 | 76 | 55 | 0.0 | 0.0 | 0.00 | 0.48 | 0.48 | 93 | 1014.2 |
| 20260906032951 | 76 | 52 | 0.0 | 1.0 | 0.00 | 0.48 | 0.48 | 93 | 1014.1 |
| 20260906032448 | 76 | 65 | 0.0 | 0.0 | 0.00 | 0.48 | 0.48 | 92 | 1014.0 |
| 20260906031948 | 76 | 32 | 0.0 | 0.0 | 0.00 | 0.48 | 0.48 | 92 | 1014.3 |
| 20260906031444 | 76 | 51 | 0.0 | 0.0 | 0.00 | 0.48 | 0.48 | 92 | 1014.3 |
| 20260906030939 | 76 | 20 | 0.0 | 0.0 | 0.00 | 0.48 | 0.48 | 92 | 1014.2 |
| 20260906030433 | 76 | 25 | 0.0 | 0.0 | 0.00 | 0.48 | 0.48 | 92 | 1014.1 |
| 20260906025928 | 76 | 37 | 0.0 | 0.0 | 0.00 | 0.48 | 0.48 | 91 | 1014.0 |
| 20260906025428 | 76 | 37 | 0.0 | 0.0 | 0.00 | 0.48 | 0.48 | 91 | 1014.1 |
| 20260906024927 | 77 | 37 | 0.0 | 0.0 | 0.00 | 0.48 | 0.48 | 91 | 1014.0 |
| 20260906024426 | 77 | 322 | 0.0 | 0.0 | 0.00 | 0.48 | 0.48 | 90 | 1013.9 |
| 20260906023922 | 77 | 63 | 0.0 | 0.0 | 0.00 | 0.48 | 0.48 | 90 | 1014.2 |
| 20260906023418 | 77 | 62 | 0.0 | 0.0 | 0.00 | 0.48 | 0.48 | 90 | 1014.1 |
| 20260906022918 | 77 | 321 | 0.0 | 0.0 | 0.00 | 0.48 | 0.48 | 90 | 1013.9 |
| 20260906022413 | 77 | 309 | 0.0 | 0.0 | 0.00 | 0.48 | 0.48 | 90 | 1013.7 |
| 20260906021908 | 77 | 315 | 0.0 | 0.0 | 0.00 | 0.48 | 0.48 | 89 | 1013.8 |
| 20260906021409 | 77 | 309 | 0.0 | 0.0 | 0.00 | 0.48 | 0.48 | 89 | 1013.9 |
| 20260906020903 | 77 | 293 | 0.0 | 0.0 | 0.00 | 0.48 | 0.48 | 88 | 1013.7 |
| 20260906020403 | 77 | 309 | 0.0 | 0.0 | 0.00 | 0.48 | 0.48 | 88 | 1013.8 |
| 20260906015857 | 77 | 309 | 0.0 | 0.0 | 0.00 | 0.48 | 0.48 | 87 | 1013.7 |
| 20260906015356 | 78 | 333 | 0.0 | 0.0 | 0.00 | 0.48 | 0.48 | 87 | 1013.7 |
| 20260906014856 | 78 | 287 | 0.0 | 1.0 | 0.00 | 0.48 | 0.48 | 86 | 1013.7 |
| 20260906014356 | 78 | 255 | 0.0 | 1.0 | 0.00 | 0.48 | 0.48 | 85 | 1013.4 |
| 20260906013853 | 78 | 296 | 0.0 | 1.0 | 0.00 | 0.48 | 0.48 | 84 | 1013.5 |
| 20260906013348 | 78 | 309 | 0.0 | 0.0 | 0.00 | 0.48 | 0.48 | 84 | 1013.4 |
| 20260906012843 | 79 | 272 | 0.0 | 1.0 | 0.00 | 0.48 | 0.48 | 84 | 1013.4 |
| 20260906012338 | 79 | 284 | 0.0 | 1.0 | 0.00 | 0.48 | 0.48 | 82 | 1013.4 |
| 20260906011838 | 80 | 282 | 0.0 | 1.0 | 0.00 | 0.48 | 0.48 | 81 | 1013.7 |
| 20260906011333 | 80 | 69 | 0.0 | 1.0 | 0.00 | 0.48 | 0.48 | 81 | 1013.7 |
| 20260906010829 | 80 | 37 | 0.0 | 2.0 | 0.00 | 0.48 | 0.48 | 80 | 1013.4 |
| 20260906010325 | 80 | 85 | 0.0 | 2.0 | 0.00 | 0.48 | 0.48 | 80 | 1013.5 |
| 20260906005820 | 80 | 42 | 2.0 | 2.0 | 0.00 | 0.48 | 0.48 | 81 | 1013.2 |
| 20260906005319 | 80 | 309 | 0.0 | 0.0 | 0.00 | 0.48 | 0.48 | 81 | 1013.2 |
| 20260906004818 | 80 | 322 | 0.0 | 0.0 | 0.00 | 0.48 | 0.48 | 80 | 1013.3 |
| 20260906004318 | 80 | 306 | 0.0 | 1.0 | 0.00 | 0.48 | 0.48 | 79 | 1013.4 |
| 20260906003813 | 81 | 293 | 1.0 | 2.0 | 0.00 | 0.48 | 0.48 | 78 | 1013.3 |
| 20260906003308 | 81 | 326 | 0.0 | 0.0 | 0.00 | 0.48 | 0.48 | 77 | 1013.4 |
| 20260906002804 | 82 | 296 | 0.0 | 2.0 | 0.00 | 0.48 | 0.48 | 77 | 1013.3 |
| 20260906002306 | 82 | 224 | 0.0 | 2.0 | 0.00 | 0.48 | 0.48 | 75 | 1013.2 |
| 20260906001759 | 82 | 325 | 0.0 | 1.0 | 0.00 | 0.48 | 0.48 | 73 | 1013.1 |
| 20260906001254 | 83 | 21 | 0.0 | 1.0 | 0.00 | 0.48 | 0.48 | 73 | 1013.2 |
| 20260906000750 | 83 | 41 | 0.0 | 2.0 | 0.00 | 0.48 | 0.48 | 73 | 1013.2 |
| 20260906000249 | 83 | 76 | 0.0 | 2.0 | 0.00 | 0.48 | 0.48 | 72 | 1013.2 |
| 20260905235745 | 84 | 326 | 0.0 | 2.0 | 0.00 | 0.48 | 0.48 | 71 | 1013.4 |
| 20260905235244 | 84 | 301 | 0.0 | 2.0 | 0.00 | 0.48 | 0.48 | 71 | 1013.2 |
| 20260905234740 | 84 | 299 | 0.0 | 2.0 | 0.00 | 0.48 | 0.48 | 70 | 1013.3 |
| 20260905234235 | 84 | 117 | 0.0 | 3.0 | 0.00 | 0.48 | 0.48 | 69 | 1013.4 |
| 20260905233730 | 84 | 294 | 0.0 | 2.0 | 0.00 | 0.48 | 0.48 | 70 | 1013.2 |
| 20260905233229 | 85 | 357 | 0.0 | 1.0 | 0.00 | 0.48 | 0.48 | 71 | 1013.1 |
| 20260905232724 | 85 | 343 | 0.0 | 0.0 | 0.00 | 0.48 | 0.48 | 70 | 1013.3 |
| 20260905232220 | 85 | 343 | 0.0 | 1.0 | 0.00 | 0.48 | 0.48 | 70 | 1013.0 |
| 20260905231716 | 86 | 297 | 0.0 | 1.0 | 0.00 | 0.48 | 0.48 | 68 | 1013.2 |
| 20260905231211 | 86 | 50 | 0.0 | 1.0 | 0.00 | 0.48 | 0.48 | 67 | 1013.1 |
| 20260905230707 | 87 | 269 | 0.0 | 2.0 | 0.00 | 0.48 | 0.48 | 66 | 1013.1 |
| 20260905230205 | 87 | 46 | 3.0 | 4.0 | 0.00 | 0.48 | 0.48 | 66 | 1013.1 |
| 20260905225704 | 89 | 139 | 0.0 | 2.0 | 0.00 | 0.48 | 0.48 | 63 | 1012.9 |
| 20260905225200 | 90 | 66 | 1.0 | 3.0 | 0.00 | 0.48 | 0.48 | 61 | 1013.0 |
| 20260905224659 | 90 | 73 | 0.0 | 3.0 | 0.00 | 0.48 | 0.48 | 61 | 1013.1 |
| 20260905224154 | 91 | 243 | 1.0 | 2.0 | 0.00 | 0.48 | 0.48 | 61 | 1012.9 |
| 20260905223651 | 91 | 296 | 0.0 | 3.0 | 0.00 | 0.48 | 0.48 | 60 | 1013.0 |
| 20260905223148 | 92 | 57 | 2.0 | 2.0 | 0.00 | 0.48 | 0.48 | 60 | 1012.9 |
| 20260905222643 | 91 | 16 | 0.0 | 3.0 | 0.00 | 0.48 | 0.48 | 60 | 1012.8 |
| 20260905222143 | 92 | 102 | 0.0 | 2.0 | 0.00 | 0.48 | 0.48 | 60 | 1012.9 |
| 20260905221638 | 92 | 63 | 0.0 | 2.0 | 0.00 | 0.48 | 0.48 | 59 | 1012.9 |
| 20260905221135 | 92 | 72 | 1.0 | 2.0 | 0.00 | 0.48 | 0.48 | 58 | 1013.0 |
| 20260905220630 | 92 | 52 | 3.0 | 3.0 | 0.00 | 0.48 | 0.48 | 60 | 1013.0 |
| 20260905220126 | 92 | 88 | 1.0 | 3.0 | 0.00 | 0.48 | 0.48 | 59 | 1013.0 |
| 20260905215625 | 93 | 48 | 0.0 | 2.0 | 0.00 | 0.48 | 0.48 | 59 | 1013.1 |
| 20260905215121 | 92 | 296 | 0.0 | 3.0 | 0.00 | 0.48 | 0.48 | 60 | 1013.0 |
| 20260905214618 | 93 | 84 | 4.0 | 6.0 | 0.00 | 0.48 | 0.48 | 60 | 1013.3 |
| 20260905214117 | 93 | 129 | 2.0 | 3.0 | 0.00 | 0.48 | 0.48 | 61 | 1013.3 |
| 20260905213613 | 92 | 224 | 0.0 | 4.0 | 0.00 | 0.48 | 0.48 | 61 | 1013.4 |
| 20260905213108 | 93 | 260 | 1.0 | 3.0 | 0.00 | 0.48 | 0.48 | 59 | 1013.5 |
| 20260905212608 | 94 | 97 | 2.0 | 3.0 | 0.00 | 0.48 | 0.48 | 58 | 1013.5 |
| 20260905212108 | 93 | 78 | 2.0 | 4.0 | 0.00 | 0.48 | 0.48 | 58 | 1013.3 |
| 20260905211603 | 93 | 251 | 2.0 | 2.0 | 0.00 | 0.48 | 0.48 | 60 | 1013.2 |
| 20260905211058 | 93 | 274 | 2.0 | 2.0 | 0.00 | 0.48 | 0.48 | 61 | 1013.2 |
| 20260905210554 | 92 | 266 | 1.0 | 2.0 | 0.00 | 0.48 | 0.48 | 64 | 1013.4 |
| 20260905210049 | 92 | 89 | 0.0 | 4.0 | 0.00 | 0.48 | 0.48 | 63 | 1013.1 |
| 20260905205549 | 93 | 64 | 1.0 | 3.0 | 0.00 | 0.48 | 0.48 | 61 | 1013.2 |
| 20260905205048 | 92 | 89 | 0.0 | 1.0 | 0.00 | 0.48 | 0.48 | 65 | 1013.2 |
| 20260905204543 | 92 | 67 | 2.0 | 4.0 | 0.00 | 0.48 | 0.48 | 62 | 1013.4 |
| 20260905204038 | 92 | 92 | 3.0 | 3.0 | 0.00 | 0.48 | 0.48 | 62 | 1013.4 |
| 20260905203538 | 92 | 96 | 2.0 | 3.0 | 0.00 | 0.48 | 0.48 | 66 | 1013.6 |
| 20260905203033 | 92 | 205 | 0.0 | 3.0 | 0.00 | 0.48 | 0.48 | 65 | 1013.6 |
| 20260905202528 | 92 | 111 | 0.0 | 5.0 | 0.00 | 0.48 | 0.48 | 63 | 1013.7 |
| 20260905202024 | 92 | 280 | 1.0 | 2.0 | 0.00 | 0.48 | 0.48 | 65 | 1013.8 |
| 20260905201520 | 92 | 125 | 2.0 | 4.0 | 0.00 | 0.48 | 0.48 | 65 | 1013.9 |
| 20260905201019 | 91 | 236 | 0.0 | 1.0 | 0.00 | 0.48 | 0.48 | 66 | 1014.1 |
| 20260905200515 | 91 | 269 | 1.0 | 2.0 | 0.00 | 0.48 | 0.48 | 67 | 1013.8 |
| 20260905200014 | 92 | 30 | 0.0 | 3.0 | 0.00 | 0.48 | 0.48 | 66 | 1014.0 |
| 20260905195508 | 91 | 284 | 1.0 | 2.0 | 0.00 | 0.48 | 0.48 | 71 | 1013.9 |
| 20260905195004 | 91 | 96 | 3.0 | 4.0 | 0.00 | 0.48 | 0.48 | 65 | 1014.0 |
| 20260905194458 | 89 | 87 | 0.0 | 2.0 | 0.00 | 0.48 | 0.48 | 67 | 1014.1 |
| 20260905193958 | 89 | 93 | 2.0 | 2.0 | 0.00 | 0.48 | 0.48 | 72 | 1014.0 |
| 20260905193458 | 89 | 247 | 0.0 | 1.0 | 0.00 | 0.48 | 0.48 | 78 | 1014.2 |
| 20260905192953 | 88 | 281 | 1.0 | 2.0 | 0.00 | 0.48 | 0.48 | 80 | 1014.2 |
| 20260905192448 | 86 | 296 | 0.0 | 2.0 | 0.00 | 0.48 | 0.48 | 84 | 1014.0 |
| 20260905191944 | 84 | 288 | 1.0 | 1.0 | 0.00 | 0.48 | 0.48 | 85 | 1014.4 |
| 20260905191443 | 83 | 287 | 0.0 | 1.0 | 0.00 | 0.48 | 0.48 | 88 | 1014.4 |
| 20260905190943 | 83 | 284 | 2.0 | 2.0 | 0.00 | 0.48 | 0.48 | 87 | 1014.8 |
| 20260905190441 | 83 | 275 | 2.0 | 2.0 | 0.00 | 0.48 | 0.48 | 90 | 1015.3 |
| 20260905185940 | 83 | 59 | 0.0 | 2.0 | 0.00 | 0.48 | 0.48 | 89 | 1015.3 |
| 20260905185435 | 82 | 15 | 0.0 | 2.0 | 0.00 | 0.48 | 0.48 | 91 | 1014.9 |
| 20260905184933 | 82 | 348 | 0.0 | 2.0 | 0.00 | 0.48 | 0.48 | 88 | 1015.1 |
| 20260905184428 | 82 | 330 | 2.0 | 2.0 | 0.00 | 0.48 | 0.48 | 93 | 1014.9 |
| 20260905183927 | 80 | 338 | 1.0 | 2.0 | 0.00 | 0.48 | 0.48 | 92 | 1014.7 |
| 20260905183422 | 79 | 36 | 1.0 | 3.0 | 0.00 | 0.48 | 0.48 | 96 | 1014.9 |
| 20260905182917 | 78 | 58 | 0.0 | 2.0 | 0.00 | 0.48 | 0.48 | 96 | 1014.7 |
| 20260905182416 | 77 | 37 | 0.0 | 1.0 | 0.00 | 0.48 | 0.48 | 96 | 1014.9 |
| 20260905181912 | 77 | 293 | 1.0 | 2.0 | 0.00 | 0.48 | 0.48 | 96 | 1015.1 |
| 20260905181412 | 76 | 300 | 0.0 | 2.0 | 0.00 | 0.48 | 0.48 | 96 | 1015.5 |
| 20260905180911 | 76 | 32 | 0.0 | 0.0 | 0.00 | 0.48 | 0.48 | 96 | 1015.7 |
| 20260905180407 | 76 | 321 | 0.0 | 2.0 | 0.00 | 0.48 | 0.48 | 96 | 1015.5 |
| 20260905175907 | 75 | 32 | 0.0 | 0.0 | 0.00 | 0.48 | 0.48 | 95 | 1015.6 |
| 20260905175407 | 75 | 322 | 0.0 | 1.0 | 0.00 | 0.48 | 0.48 | 95 | 1015.6 |
| 20260905174907 | 74 | 311 | 0.0 | 1.0 | 0.00 | 0.48 | 0.48 | 94 | 1015.4 |
| 20260905174403 | 74 | 349 | 1.0 | 1.0 | 0.00 | 0.48 | 0.48 | 92 | 1015.5 |
| 20260905173858 | 75 | 321 | 1.0 | 2.0 | 0.00 | 0.48 | 0.48 | 92 | 1015.6 |
| 20260905173355 | 75 | 311 | 1.0 | 1.0 | 0.02 | 0.48 | 0.48 | 93 | 1015.7 |
| 20260905172855 | 74 | 336 | 0.0 | 2.0 | 0.99 | 0.48 | 0.48 | 91 | 1015.8 |
| 20260905172353 | 75 | 31 | 0.0 | 4.0 | 2.27 | 0.47 | 0.47 | 87 | 1016.3 |
| 20260905171849 | 78 | 87 | 3.0 | 9.0 | 1.87 | 0.31 | 0.31 | 85 | 1016.5 |
| 20260905171346 | 85 | 356 | 1.0 | 3.0 | 0.33 | 0.06 | 0.06 | 75 | 1016.2 |
| 20260905170842 | 88 | 67 | 2.0 | 5.0 | 0.00 | 0.00 | 0.00 | 62 | 1015.8 |
| 20260905170338 | 91 | 330 | 2.0 | 2.0 | 0.00 | 0.00 | 0.00 | 63 | 1015.7 |
| 20260905165837 | 91 | 293 | 1.0 | 2.0 | 0.00 | 0.00 | 0.00 | 60 | 1015.5 |
| 20260905165332 | 92 | 296 | 0.0 | 2.0 | 0.00 | 0.00 | 0.00 | 59 | 1015.7 |
| 20260905164832 | 94 | 63 | 0.0 | 3.0 | 0.00 | 0.00 | 0.00 | 56 | 1015.8 |
| 20260905164327 | 92 | 17 | 0.0 | 2.0 | 0.00 | 0.00 | 0.00 | 58 | 1015.9 |
| 20260905163822 | 91 | 300 | 1.0 | 4.0 | 0.00 | 0.00 | 0.00 | 60 | 1015.9 |
| 20260905163319 | 91 | 290 | 2.0 | 3.0 | 0.00 | 0.00 | 0.00 | 61 | 1015.9 |
| 20260905162815 | 90 | 269 | 0.0 | 2.0 | 0.00 | 0.00 | 0.00 | 63 | 1015.8 |
| 20260905162314 | 91 | 123 | 0.0 | 3.0 | 0.00 | 0.00 | 0.00 | 58 | 1015.7 |
| 20260905161809 | 91 | 72 | 1.0 | 3.0 | 0.00 | 0.00 | 0.00 | 62 | 1015.8 |
| 20260905161308 | 90 | 149 | 2.0 | 2.0 | 0.00 | 0.00 | 0.00 | 61 | 1015.9 |
| 20260905160806 | 89 | 269 | 1.0 | 2.0 | 0.00 | 0.00 | 0.00 | 65 | 1015.9 |
| 20260905160300 | 89 | 92 | 2.0 | 2.0 | 0.00 | 0.00 | 0.00 | 64 | 1015.9 |
| 20260905155755 | 88 | 93 | 0.0 | 2.0 | 0.00 | 0.00 | 0.00 | 66 | 1015.8 |
| 20260905155254 | 88 | 86 | 2.0 | 4.0 | 0.00 | 0.00 | 0.00 | 66 | 1015.7 |
| 20260905154748 | 88 | 32 | 0.0 | 3.0 | 0.00 | 0.00 | 0.00 | 67 | 1016.0 |
| 20260905154245 | 88 | 269 | 2.0 | 2.0 | 0.00 | 0.00 | 0.00 | 69 | 1015.9 |
| 20260905153740 | 86 | 27 | 2.0 | 2.0 | 0.00 | 0.00 | 0.00 | 71 | 1015.9 |
| 20260905153236 | 84 | 89 | 0.0 | 1.0 | 0.00 | 0.00 | 0.00 | 76 | 1016.1 |
| 20260905152731 | 84 | 89 | 0.0 | 1.0 | 0.00 | 0.00 | 0.00 | 76 | 1016.1 |
| 20260905152230 | 84 | 89 | 0.0 | 1.0 | 0.00 | 0.00 | 0.00 | 76 | 1016.1 |
| 20260905151730 | 84 | 89 | 0.0 | 1.0 | 0.00 | 0.00 | 0.00 | 76 | 1016.2 |
| 20260905151226 | 84 | 89 | 0.0 | 1.0 | 0.00 | 0.00 | 0.00 | 76 | 1016.1 |
| 20260905150721 | 84 | 89 | 0.0 | 1.0 | 0.00 | 0.00 | 0.00 | 76 | 1016.2 |
| 20260905150220 | 84 | 89 | 0.0 | 1.0 | 0.00 | 0.00 | 0.00 | 76 | 1016.1 |
| 20260905145718 | 84 | 89 | 0.0 | 1.0 | 0.00 | 0.00 | 0.00 | 76 | 1016.3 |
| 20260905145213 | 84 | 89 | 0.0 | 1.0 | 0.00 | 0.00 | 0.00 | 76 | 1016.2 |
| 20260905144712 | 84 | 89 | 0.0 | 1.0 | 0.00 | 0.00 | 0.00 | 76 | 1016.3 |
| 20260905144211 | 83 | 34 | 0.0 | 1.0 | 0.00 | 0.00 | 0.00 | 76 | 1016.1 |
| 20260905143706 | 83 | 75 | 0.0 | 0.0 | 0.00 | 0.00 | 0.00 | 78 | 1016.3 |
| 20260905143206 | 82 | 15 | 0.0 | 1.0 | 0.00 | 0.00 | 0.00 | 79 | 1016.3 |
| 20260905142704 | 82 | 326 | 0.0 | 1.0 | 0.00 | 0.00 | 0.00 | 80 | 1016.3 |
| 20260905142159 | 82 | 85 | 0.0 | 2.0 | 0.00 | 0.00 | 0.00 | 78 | 1016.3 |
| 20260905141654 | 82 | 299 | 0.0 | 1.0 | 0.00 | 0.00 | 0.00 | 81 | 1016.4 |
| 20260905141150 | 81 | 37 | 0.0 | 1.0 | 0.00 | 0.00 | 0.00 | 81 | 1016.5 |
| 20260905140645 | 81 | 333 | 0.0 | 2.0 | 0.00 | 0.00 | 0.00 | 83 | 1016.5 |
| 20260905140144 | 81 | 107 | 0.0 | 3.0 | 0.00 | 0.00 | 0.00 | 82 | 1016.5 |
| 20260905135640 | 80 | 60 | 0.0 | 1.0 | 0.00 | 0.00 | 0.00 | 82 | 1016.4 |
| 20260905135135 | 80 | 66 | 2.0 | 2.0 | 0.00 | 0.00 | 0.00 | 84 | 1016.5 |
| 20260905134630 | 80 | 44 | 1.0 | 1.0 | 0.00 | 0.00 | 0.00 | 84 | 1016.5 |
| 20260905134128 | 80 | 12 | 1.0 | 1.0 | 0.00 | 0.00 | 0.00 | 84 | 1016.4 |
| 20260905133624 | 80 | 12 | 1.0 | 2.0 | 0.00 | 0.00 | 0.00 | 84 | 1016.6 |
| 20260905133124 | 79 | 95 | 2.0 | 2.0 | 0.00 | 0.00 | 0.00 | 84 | 1016.6 |
| 20260905132623 | 79 | 81 | 2.0 | 2.0 | 0.00 | 0.00 | 0.00 | 84 | 1016.5 |
| 20260905132118 | 79 | 304 | 0.0 | 1.0 | 0.00 | 0.00 | 0.00 | 85 | 1016.7 |
| 20260905131614 | 79 | 309 | 0.0 | 0.0 | 0.00 | 0.00 | 0.00 | 86 | 1016.8 |
| 20260905131109 | 78 | 304 | 0.0 | 0.0 | 0.00 | 0.00 | 0.00 | 86 | 1016.8 |
| 20260905130609 | 78 | 22 | 0.0 | 0.0 | 0.00 | 0.00 | 0.00 | 86 | 1016.8 |
| 20260905125603 | 78 | 15 | 0.0 | 1.0 | 0.00 | 0.00 | 0.00 | 88 | 1016.8 |
| 20260905125058 | 77 | 63 | 1.0 | 1.0 | 0.00 | 0.00 | 0.00 | 88 | 1016.8 |
| 20260905124555 | 77 | 19 | 0.0 | 0.0 | 0.00 | 0.00 | 0.00 | 89 | 1016.9 |
| 20260905124051 | 77 | 333 | 0.0 | 0.0 | 0.00 | 0.00 | 0.00 | 89 | 1016.9 |
| 20260905123545 | 76 | 310 | 0.0 | 0.0 | 0.00 | 0.00 | 0.00 | 90 | 1016.8 |
| 20260905123043 | 76 | 296 | 0.0 | 0.0 | 0.00 | 0.00 | 0.00 | 90 | 1016.8 |
| 20260905122542 | 75 | 55 | 0.0 | 0.0 | 0.00 | 0.00 | 0.00 | 92 | 1016.6 |
| 20260905122037 | 75 | 25 | 0.0 | 0.0 | 0.00 | 0.00 | 0.00 | 92 | 1016.8 |
| 20260905121532 | 75 | 44 | 0.0 | 1.0 | 0.00 | 0.00 | 0.00 | 93 | 1016.6 |
| 20260905121027 | 75 | 32 | 0.0 | 0.0 | 0.00 | 0.00 | 0.00 | 93 | 1016.6 |
| 20260905120526 | 74 | 343 | 0.0 | 0.0 | 0.00 | 0.00 | 0.00 | 93 | 1016.3 |
| 20260905120022 | 74 | 37 | 0.0 | 1.0 | 0.00 | 0.00 | 0.00 | 93 | 1016.2 |
| 20260905115520 | 74 | 306 | 1.0 | 2.0 | 0.00 | 0.00 | 0.00 | 93 | 1016.0 |
| 20260905115015 | 74 | 20 | 1.0 | 1.0 | 0.00 | 0.00 | 0.00 | 94 | 1016.1 |
| 20260905114515 | 73 | 29 | 0.0 | 2.0 | 0.00 | 0.00 | 0.00 | 93 | 1016.2 |
| 20260905114014 | 73 | 49 | 2.0 | 2.0 | 0.00 | 0.00 | 0.00 | 93 | 1015.9 |
| 20260905113509 | 73 | 60 | 0.0 | 1.0 | 0.00 | 0.00 | 0.00 | 94 | 1015.8 |
| 20260905113004 | 73 | 12 | 0.0 | 1.0 | 0.00 | 0.00 | 0.00 | 93 | 1015.9 |
| 20260905112459 | 73 | 353 | 0.0 | 1.0 | 0.00 | 0.00 | 0.00 | 93 | 1015.8 |
| 20260905111954 | 73 | 64 | 0.0 | 1.0 | 0.00 | 0.00 | 0.00 | 93 | 1015.9 |
| 20260905111449 | 73 | 15 | 0.0 | 1.0 | 0.00 | 0.00 | 0.00 | 93 | 1015.8 |
| 20260905110944 | 73 | 64 | 0.0 | 1.0 | 0.00 | 0.00 | 0.00 | 93 | 1015.7 |
| 20260905110443 | 73 | 113 | 0.0 | 1.0 | 0.00 | 0.00 | 0.00 | 93 | 1015.7 |
| 20260905105943 | 73 | 49 | 0.0 | 1.0 | 0.00 | 0.00 | 0.00 | 93 | 1015.6 |
| 20260905105437 | 73 | 58 | 1.0 | 1.0 | 0.00 | 0.00 | 0.00 | 93 | 1015.7 |
| 20260905104937 | 73 | 343 | 0.0 | 0.0 | 0.00 | 0.00 | 0.00 | 93 | 1015.6 |
| 20260905104433 | 73 | 37 | 0.0 | 0.0 | 0.00 | 0.00 | 0.00 | 93 | 1015.4 |
| 20260905103932 | 73 | 52 | 0.0 | 2.0 | 0.00 | 0.00 | 0.00 | 93 | 1015.4 |
| 20260905103428 | 74 | 60 | 0.0 | 1.0 | 0.00 | 0.00 | 0.00 | 93 | 1015.3 |
| 20260905102924 | 74 | 55 | 0.0 | 0.0 | 0.00 | 0.00 | 0.00 | 93 | 1015.3 |
| 20260905102420 | 73 | 81 | 0.0 | 2.0 | 0.00 | 0.00 | 0.00 | 94 | 1015.4 |
| 20260905101915 | 74 | 22 | 0.0 | 0.0 | 0.00 | 0.00 | 0.00 | 94 | 1015.4 |
| 20260905101414 | 74 | 64 | 0.0 | 1.0 | 0.00 | 0.00 | 0.00 | 94 | 1015.4 |
| 20260905100908 | 74 | 309 | 0.0 | 0.0 | 0.00 | 0.00 | 0.00 | 94 | 1015.1 |
| 20260905100404 | 74 | 322 | 0.0 | 0.0 | 0.00 | 0.00 | 0.00 | 94 | 1014.9 |
| 20260905095904 | 74 | 86 | 0.0 | 2.0 | 0.00 | 0.00 | 0.00 | 94 | 1015.0 |
| 20260905095359 | 74 | 50 | 0.0 | 2.0 | 0.00 | 0.00 | 0.00 | 93 | 1014.7 |